Weather in Larkana

Pakistan     27°33′42″N   68°13′01″E
temp.,
°C
wind,
m/s
gust,
m/s
humid.,
%
clouds,
%
prec.,
mm/h
press.,
hPa
HPBL,
m
12 april, mon
mon1223:00+32s51091 0.0 1009137
02:00+30sw48120 0.0 1008117
05:00+29sw47143 0.0 100893
08:00+33sw58125 0.0 1010257
11:00+41wsw4560 0.0 10102290
14:00+42ssw4358 0.0 10085764
17:00+42sse53583 0.0 10065760
20:00+35sse4572 0.0 100762
13 april, tue
tue1323:00+32ssw5111640 0.0 1008187
02:00+30ssw49208 0.0 1008140
05:00+29ssw46184 0.0 100771
08:00+32wnw12155 0.0 1010195
11:00+39s2495 0.0 10091986
14:00+43sse54570 0.0 10065560
17:00+41se64659 0.0 10044437
20:00+36sse612898 0.0 1005301
14 april, wed
wed1423:00+31ssw51130100 0.0 1007283
02:00+29sse47385 0.0 1007136
05:00+27sse463892 0.0 1006110
08:00+28sse45357 0.0 1008266
11:00+36ese33150 0.0 10081352
14:00+40ene4480 0.0 10042446
17:00+40e446100 0.0 10022643
20:00+34se458100 0.0 100455
15 april, thu
thu1523:00+31s221422 0.0 100520
02:00+29sse4729100 0.0 1004133
05:00+27s475422 0.0 1004130
08:00+30s344511 0.0 1006274
11:00+37ene11215 0.0 10061220
14:00+41se24135 0.0 10024201
17:00+26s9124995 1.8 1004255
20:00+27e584233 0.1 1004250
16 april, fri
fri1623:00+28s374373 0.1 1006234
02:00+26n594424 0.0 1005341
05:00+26nne11445 0.0 100519
08:00+29ne23371 0.0 1008308
11:00+34e32240 0.0 10071755
14:00+37ese13160 0.0 10053563
17:00+39se35135 0.0 10034075
20:00+34se47200 0.0 1003109